Location: Middle Street
(51.7167°N, 0.0333°E)
Time: 19:19:11
(UTC+00:00)

ERS-2 - Pass Details

Date: 20 January 2021
Orbit: 492 x 497 km, 98.6° (Epoch: 27 February)

Event Time Altitude Azimuth Distance (km) Brightness Sun altitude
Exits shadow 19:16:23 36° 315° (NW) 797 3.4 -25.6°
Maximum altitude 19:16:54 39° 293° (WNW) 761 3.4 -25.6°
Drops below altitude 10° 19:20:18 10° 224° (SW) 1,687 5.3 -26.2°
Sets 19:22:26 0° 216° (SW) 2,564 6.2 -26.5°
